This is the latest recevied weather packets stored in our database for station/object M0UPS-13. If no packets are shown the sender has not sent any weather packets the latest 10 day(s).
| Time | Temp. | Humidity | Pressure | Rain* | Wind** | Luminosity | Snow |
|---|---|---|---|---|---|---|---|
| 1777550402 | 20° C | 40% | 1022.1 hPa | 0 mm | - | 715 W/m² | - |
| 1777550102 | 20° C | 39% | 1021.9 hPa | 0 mm | - | 717 W/m² | - |
| 1777549802 | 20° C | 40% | 1021.9 hPa | 0 mm | - | 716 W/m² | - |
| 1777549502 | 20° C | 38% | 1022.1 hPa | 0 mm | - | 720 W/m² | - |
| 1777549202 | 20.56° C | 38% | 1022.1 hPa | 0 mm | - | 719 W/m² | - |
| 1777548902 | 20° C | 38% | 1022 hPa | 0 mm | - | 717 W/m² | - |
| 1777548602 | 20° C | 38% | 1021.9 hPa | 0 mm | - | 719 W/m² | - |
| 1777548302 | 20.56° C | 36% | 1022 hPa | 0 mm | - | 717 W/m² | - |
| 1777548002 | 20.56° C | 36% | 1021.9 hPa | 0 mm | - | 712 W/m² | - |
| 1777547702 | 20.56° C | 37% | 1022.2 hPa | 0 mm | - | 716 W/m² | - |
| 1777547403 | 20.56° C | 34% | 1022 hPa | 0 mm | - | 712 W/m² | - |
| 1777547102 | 20° C | 36% | 1022.2 hPa | 0 mm | - | 712 W/m² | - |
| 1777546805 | 20.56° C | 34% | 1022 hPa | 0 mm | - | 709 W/m² | - |
| 1777546502 | 20° C | 34% | 1022 hPa | 0 mm | - | 703 W/m² | - |
| 1777546202 | 20° C | 33% | 1022.3 hPa | 0 mm | - | 703 W/m² | - |
| 1777545902 | 20° C | 33% | 1022.3 hPa | 0 mm | - | 699 W/m² | - |
| 1777545602 | 20° C | 34% | 1022.2 hPa | 0 mm | - | 697 W/m² | - |
| 1777545302 | 20.56° C | 33% | 1022 hPa | 0 mm | - | 691 W/m² | - |
| 1777545002 | 20° C | 34% | 1022.2 hPa | 0 mm | - | 685 W/m² | - |
| 1777544702 | 19.44° C | 34% | 1022.3 hPa | 0 mm | - | 681 W/m² | - |
| 1777544402 | 20° C | 35% | 1022.3 hPa | 0 mm | - | 676 W/m² | - |
| 1777544102 | 20° C | 34% | 1022.3 hPa | 0 mm | - | 669 W/m² | - |
| 1777543802 | 18.89° C | 33% | 1022.3 hPa | 0 mm | - | 664 W/m² | - |
| 1777543502 | 19.44° C | 34% | 1022.1 hPa | 0 mm | - | 657 W/m² | - |
| 1777543203 | 19.44° C | 32% | 1022.3 hPa | 0 mm | - | 652 W/m² | - |
* Rain latest hour (hover to see other rain measurements)
** Current wind speed in m/s (hover to see current wind gust speed)